Weather History for Owen Roberts, Cayman Islands

Change the Weather History Date:

Friday, November 8, 2013

  Actual Average Record
Temperature  
Mean Temperature 84 °F -  
Max Temperature 89 °F 83 °F 89 °F (2002)
Min Temperature 79 °F 75 °F 48 °F (2004)
Cooling Degree Days 19    
Growing Degree Days 34 (Base 50)    
Moisture  
Dew Point 77 °F    
Average Humidity 79    
Maximum Humidity 89    
Minimum Humidity 53    
Precipitation  
Precipitation 0.00 in - - ()
Sea Level Pressure  
Sea Level Pressure 29.88 in    
Wind  
Wind Speed 12 mph ()    
Max Wind Speed 75 mph    
Max Gust Speed -    
Visibility 6.1 miles    
Events      
Averages and records for this station are not official NWS values.
T = Trace of Precipitation, MM = Missing Value Source: Averaged Metar Reports

Daily Weather History Graph

Daily Weather History Graph

Search for Another Location

Airport:

Trip Planner

Search our weather history database for the weather conditions in past years. The results will help you decide how hot, cold, wet, or windy it might be!

Date:

Astronomy

Nov. 08, 2013 Rise Set
Actual Time 6:29 AM EST 5:48 PM EST
Civil Twilight 6:06 AM EST 6:11 PM EST
Nautical Twilight 5:40 AM EST 6:37 PM EST
Astronomical Twilight 5:14 AM EST 7:03 PM EST
Moon 11:23 AM EST (11/8) 11:05 PM EST (11/8)
Length of Visible Light 12h 04m
Length of Day
11h 19m
Waxing Crescent, 33% of the Moon is Illuminated
Nov 8
Waxing Crescent
Nov 10
First Quarter
Nov 17
Full
Nov 25
Last Quarter
Dec 2
New

Hourly Weather History & Observations

Time (EST) Temp. Heat Index Dew Point Humidity Pressure Visibility Wind Dir Wind Speed Gust Speed Precip Events Conditions
5:55 AM 80.6 °F 87.1 °F 77.0 °F 89% 29.86 in 6.2 mi East 6.9 mph - N/A   Partly Cloudy
7:00 AM - - 77 °F % 29.88 in 6 mi NNE 74.8 mph - -   Scattered Clouds
7:00 AM 80.6 °F 87.1 °F 77.0 °F 89% 29.86 in 6.2 mi East 6.9 mph - N/A   Partly Cloudy
7:52 AM 82.4 °F 92.4 °F 78.8 °F 89% 29.89 in 6.2 mi East 9.2 mph - N/A   Partly Cloudy
9:00 AM 84.2 °F 94.1 °F 77.0 °F 79% 29.92 in 6.2 mi East 9.2 mph - N/A   Partly Cloudy
9:53 AM 86.0 °F 96.9 °F 77.0 °F 74% 29.92 in 5.6 mi East 12.7 mph - N/A   Partly Cloudy
10:52 AM 84.2 °F 96.1 °F 78.8 °F 84% 29.89 in 5.6 mi ENE 10.4 mph - N/A   Scattered Clouds
12:52 PM 89.6 °F 98.2 °F 73.4 °F 59% 29.86 in 6.2 mi SE 10.4 mph - N/A   Unknown
1:00 PM 89 °F - 74 °F 53% 29.87 in 6 mi SE 10.4 mph - -   Scattered Clouds
1:00 PM 84.2 °F 94.1 °F 77.0 °F 79% 29.89 in 6.2 mi East 9.2 mph - N/A   Partly Cloudy
2:00 PM 87.8 °F 99.7 °F 77.0 °F 70% 29.83 in 6.2 mi ESE 5.8 mph - N/A   Partly Cloudy
3:00 PM 86.0 °F 96.9 °F 77.0 °F 74% 29.83 in 6.2 mi SSE 4.6 mph - N/A   Partly Cloudy
4:00 PM 86.0 °F 96.9 °F 77.0 °F 74% 29.83 in 6.2 mi SSE 5.8 mph - N/A   Partly Cloudy
5:00 PM 86.0 °F 96.9 °F 77.0 °F 74% 29.86 in 6.2 mi East 5.8 mph - N/A   Partly Cloudy
6:00 PM 84.2 °F 96.1 °F 78.8 °F 84% 29.86 in 6.2 mi East 3.5 mph - N/A   Partly Cloudy
7:00 PM 83 °F - 78 °F 80% 29.91 in 6 mi East 3.5 mph - -   Partly Cloudy
7:00 PM 82.4 °F 90.9 °F 77.0 °F 84% 29.86 in 6.2 mi East 4.6 mph - N/A   Partly Cloudy
8:00 PM 82.4 °F 92.4 °F 78.8 °F 89% 29.89 in 6.2 mi East 3.5 mph - N/A   Partly Cloudy
9:00 PM 82.4 °F 92.4 °F 78.8 °F 89% 29.92 in 6.2 mi East 3.5 mph - N/A   Partly Cloudy
10:00 PM 82.4 °F 92.4 °F 78.8 °F 89% 29.92 in 6.2 mi Variable 3.5 mph - N/A   Partly Cloudy